Year,Month,Day,Hour,Minute,Value (Times are PST for temperature in C)
2017,05,07,00,00,4.80
2017,05,07,00,01,4.80
2017,05,07,00,02,4.80
2017,05,07,00,03,4.70
2017,05,07,00,04,4.70
2017,05,07,00,05,4.70
2017,05,07,00,06,4.70
2017,05,07,00,07,4.70
2017,05,07,00,08,4.70
2017,05,07,00,09,4.70
2017,05,07,00,10,4.70
2017,05,07,00,11,4.70
2017,05,07,00,12,4.70
2017,05,07,00,13,4.60
2017,05,07,00,17,4.60
2017,05,07,00,18,4.60
2017,05,07,00,19,4.60
2017,05,07,00,20,4.60
2017,05,07,00,21,4.60
2017,05,07,00,22,4.60
2017,05,07,00,23,4.60
2017,05,07,00,24,4.60
2017,05,07,00,25,4.60
2017,05,07,00,26,4.60
2017,05,07,00,27,4.60
2017,05,07,00,28,4.50
2017,05,07,00,29,4.50
2017,05,07,00,30,4.50
2017,05,07,00,31,4.50
2017,05,07,00,32,4.50
2017,05,07,00,33,4.50
2017,05,07,00,34,4.50
2017,05,07,00,35,4.50
2017,05,07,00,36,4.50
2017,05,07,00,37,4.50
2017,05,07,00,38,4.60
2017,05,07,00,39,4.60
2017,05,07,00,40,4.50
2017,05,07,00,41,4.50
2017,05,07,00,42,4.50
2017,05,07,00,43,4.40
2017,05,07,00,44,4.40
2017,05,07,00,45,4.40
2017,05,07,00,46,4.40
2017,05,07,00,47,4.40
2017,05,07,00,48,4.40
2017,05,07,00,49,4.40
2017,05,07,00,50,4.40
2017,05,07,00,51,4.40
2017,05,07,00,52,4.40
2017,05,07,00,53,4.30
2017,05,07,00,54,4.30
2017,05,07,00,55,4.30
2017,05,07,00,56,4.30
2017,05,07,00,57,4.30
2017,05,07,00,58,4.30
2017,05,07,00,59,4.30
2017,05,07,01,00,4.30
2017,05,07,01,01,4.30
2017,05,07,01,02,4.30
2017,05,07,01,03,4.30
2017,05,07,01,04,4.30
2017,05,07,01,05,4.30
2017,05,07,01,06,4.20
2017,05,07,01,07,4.20
2017,05,07,01,08,4.20
2017,05,07,01,09,4.20
2017,05,07,01,10,4.20
2017,05,07,01,11,4.20
2017,05,07,01,12,4.20
2017,05,07,01,13,4.20
2017,05,07,01,14,4.20
2017,05,07,01,15,4.20
2017,05,07,01,16,4.20
2017,05,07,01,17,4.20
2017,05,07,01,18,4.20
2017,05,07,01,19,4.20
2017,05,07,01,20,4.20
2017,05,07,01,21,4.20
2017,05,07,01,22,4.20
2017,05,07,01,23,4.20
2017,05,07,01,24,4.20
2017,05,07,01,25,4.20
2017,05,07,01,26,4.20
2017,05,07,01,27,4.20
2017,05,07,01,28,4.20
2017,05,07,01,29,4.20
2017,05,07,01,30,4.20
2017,05,07,01,31,4.10
2017,05,07,01,32,4.10
2017,05,07,01,33,4.10
2017,05,07,01,34,4.00
2017,05,07,01,35,4.00
2017,05,07,01,36,4.00
2017,05,07,01,37,3.90
2017,05,07,01,38,3.90
2017,05,07,01,39,3.90
2017,05,07,01,40,3.90
2017,05,07,01,41,3.90
2017,05,07,01,42,3.90
2017,05,07,01,43,3.90
2017,05,07,01,44,3.80
2017,05,07,01,45,3.80
2017,05,07,01,46,3.80
2017,05,07,01,47,3.80
2017,05,07,01,48,3.80
2017,05,07,01,49,3.80
2017,05,07,01,50,3.80
2017,05,07,01,51,3.80
2017,05,07,01,52,3.80
2017,05,07,01,53,3.80
2017,05,07,01,54,3.70
2017,05,07,01,55,3.70
2017,05,07,01,56,3.70
2017,05,07,01,57,3.70
2017,05,07,01,58,3.70
2017,05,07,01,59,3.60
2017,05,07,02,00,3.60
2017,05,07,02,01,3.60
2017,05,07,02,02,3.60
2017,05,07,02,03,3.60
2017,05,07,02,04,3.60
2017,05,07,02,05,3.60
2017,05,07,02,06,3.70
2017,05,07,02,07,3.70
2017,05,07,02,08,3.70
2017,05,07,02,09,3.70
2017,05,07,02,10,3.70
2017,05,07,02,11,3.60
2017,05,07,02,12,3.60
2017,05,07,02,13,3.60
2017,05,07,02,14,3.60
2017,05,07,02,15,3.60
2017,05,07,02,16,3.60
2017,05,07,02,17,3.50
2017,05,07,02,18,3.50
2017,05,07,02,19,3.50
2017,05,07,02,20,3.50
2017,05,07,02,21,3.40
2017,05,07,02,22,3.40
2017,05,07,02,23,3.40
2017,05,07,02,24,3.40
2017,05,07,02,25,3.40
2017,05,07,02,26,3.30
2017,05,07,02,27,3.30
2017,05,07,02,28,3.30
2017,05,07,02,29,3.30
2017,05,07,02,30,3.30
2017,05,07,02,31,3.30
2017,05,07,02,32,3.30
2017,05,07,02,33,3.30
2017,05,07,02,34,3.30
2017,05,07,02,35,3.30
2017,05,07,02,36,3.30
2017,05,07,02,37,3.30
2017,05,07,02,38,3.30
2017,05,07,02,39,3.30
2017,05,07,02,40,3.30
2017,05,07,02,41,3.30
2017,05,07,02,42,3.30
2017,05,07,02,43,3.30
2017,05,07,02,44,3.20
2017,05,07,02,45,3.20
2017,05,07,02,46,3.20
2017,05,07,02,47,3.20
2017,05,07,02,48,3.20
2017,05,07,02,49,3.20
2017,05,07,02,50,3.20
2017,05,07,02,51,3.20
2017,05,07,02,52,3.20
2017,05,07,02,53,3.20
2017,05,07,02,54,3.20
2017,05,07,02,55,3.20
2017,05,07,02,56,3.20
2017,05,07,02,57,3.20
2017,05,07,02,58,3.20
2017,05,07,02,59,3.20
2017,05,07,03,00,3.30
2017,05,07,03,01,3.30
2017,05,07,03,02,3.30
2017,05,07,03,03,3.30
2017,05,07,03,04,3.30
2017,05,07,03,05,3.30
2017,05,07,03,06,3.30
2017,05,07,03,07,3.30
2017,05,07,03,08,3.30
2017,05,07,03,09,3.30
2017,05,07,03,10,3.30
2017,05,07,03,11,3.30
2017,05,07,03,12,3.20
2017,05,07,03,13,3.20
2017,05,07,03,14,3.20
2017,05,07,03,15,3.10
2017,05,07,03,16,3.10
2017,05,07,03,17,3.10
2017,05,07,03,18,3.10
2017,05,07,03,19,3.00
2017,05,07,03,20,3.00
2017,05,07,03,21,3.00
2017,05,07,03,22,3.00
2017,05,07,03,23,3.00
2017,05,07,03,24,2.90
2017,05,07,03,25,3.00
2017,05,07,03,26,3.00
2017,05,07,03,27,3.00
2017,05,07,03,28,3.00
2017,05,07,03,29,3.00
2017,05,07,03,30,3.00
2017,05,07,03,31,3.00
2017,05,07,03,32,3.00
2017,05,07,03,33,3.00
2017,05,07,03,34,3.00
2017,05,07,03,35,3.00
2017,05,07,03,36,3.00
2017,05,07,03,37,3.00
2017,05,07,03,38,2.90
2017,05,07,03,39,2.90
2017,05,07,03,40,2.90
2017,05,07,03,41,2.90
2017,05,07,03,42,2.90
2017,05,07,03,43,2.80
2017,05,07,03,44,2.80
2017,05,07,03,45,2.80
2017,05,07,03,46,2.80
2017,05,07,03,47,2.80
2017,05,07,03,48,2.80
2017,05,07,03,49,2.80
2017,05,07,03,50,2.80
2017,05,07,03,51,2.90
2017,05,07,03,52,2.90
2017,05,07,03,53,3.00
2017,05,07,03,54,3.00
2017,05,07,03,55,3.00
2017,05,07,03,56,3.10
2017,05,07,03,57,3.10
2017,05,07,03,58,3.10
2017,05,07,03,59,3.10
2017,05,07,04,00,3.00
2017,05,07,04,01,3.00
2017,05,07,04,02,2.90
2017,05,07,04,03,2.90
2017,05,07,04,04,2.90
2017,05,07,04,05,2.90
2017,05,07,04,06,2.80
2017,05,07,04,07,2.80
2017,05,07,04,08,2.80
2017,05,07,04,09,2.80
2017,05,07,04,10,2.80
2017,05,07,04,11,2.80
2017,05,07,04,12,2.80
2017,05,07,04,13,2.80
2017,05,07,04,14,2.70
2017,05,07,04,15,2.70
2017,05,07,04,16,2.70
2017,05,07,04,17,2.70
2017,05,07,04,18,2.70
2017,05,07,04,19,2.70
2017,05,07,04,20,2.70
2017,05,07,04,21,2.70
2017,05,07,04,22,2.70
2017,05,07,04,23,2.70
2017,05,07,04,24,2.70
2017,05,07,04,25,2.70
2017,05,07,04,26,2.70
2017,05,07,04,27,2.60
2017,05,07,04,28,2.70
2017,05,07,04,29,2.60
2017,05,07,04,30,2.60
2017,05,07,04,31,2.60
2017,05,07,04,32,2.60
2017,05,07,04,33,2.60
2017,05,07,04,34,2.60
2017,05,07,04,35,2.60
2017,05,07,04,36,2.60
2017,05,07,04,37,2.60
2017,05,07,04,38,2.50
2017,05,07,04,39,2.50
2017,05,07,04,40,2.50
2017,05,07,04,41,2.60
2017,05,07,04,42,2.60
2017,05,07,04,43,2.60
2017,05,07,04,44,2.60
2017,05,07,04,45,2.60
2017,05,07,04,46,2.60
2017,05,07,04,47,2.60
2017,05,07,04,48,2.60
2017,05,07,04,49,2.60
2017,05,07,04,50,2.60
2017,05,07,04,51,2.60
2017,05,07,04,52,2.60
2017,05,07,04,53,2.60
2017,05,07,04,54,2.60
2017,05,07,04,55,2.60
2017,05,07,04,56,2.50
2017,05,07,04,57,2.50
2017,05,07,04,58,2.60
2017,05,07,04,59,2.50
2017,05,07,05,00,2.50
2017,05,07,05,01,2.50
2017,05,07,05,02,2.60
2017,05,07,05,03,2.60
2017,05,07,05,04,2.60
2017,05,07,05,05,2.60
2017,05,07,05,06,2.60
2017,05,07,05,07,2.60
2017,05,07,05,08,2.60
2017,05,07,05,09,2.60
2017,05,07,05,10,2.60
2017,05,07,05,11,2.60
2017,05,07,05,12,2.70
2017,05,07,05,13,2.70
2017,05,07,05,14,2.70
2017,05,07,05,15,2.70
2017,05,07,05,16,2.70
2017,05,07,05,17,2.70
2017,05,07,05,18,2.70
2017,05,07,05,19,2.70
2017,05,07,05,20,2.70
2017,05,07,05,21,2.60
2017,05,07,05,22,2.60
2017,05,07,05,23,2.60
2017,05,07,05,24,2.60
2017,05,07,05,25,2.60
2017,05,07,05,26,2.60
2017,05,07,05,27,2.60
2017,05,07,05,28,2.60
2017,05,07,05,29,2.60
2017,05,07,05,30,2.50
2017,05,07,05,31,2.50
2017,05,07,05,32,2.50
2017,05,07,05,33,2.50
2017,05,07,05,34,2.40
2017,05,07,05,35,2.40
2017,05,07,05,36,2.40
2017,05,07,05,37,2.40
2017,05,07,05,38,2.40
2017,05,07,05,39,2.30
2017,05,07,05,40,2.30
2017,05,07,05,41,2.30
2017,05,07,05,42,2.30
2017,05,07,05,43,2.30
2017,05,07,05,44,2.30
2017,05,07,05,45,2.30
2017,05,07,05,46,2.30
2017,05,07,05,47,2.30
2017,05,07,05,48,2.30
2017,05,07,05,49,2.30
2017,05,07,05,50,2.20
2017,05,07,05,51,2.20
2017,05,07,05,52,2.20
2017,05,07,05,53,2.20
2017,05,07,05,54,2.20
2017,05,07,05,55,2.10
2017,05,07,05,56,2.10
2017,05,07,05,57,2.10
2017,05,07,05,58,2.10
2017,05,07,05,59,2.10
2017,05,07,06,00,2.10
2017,05,07,06,01,2.10
2017,05,07,06,02,2.10
2017,05,07,06,03,2.10
2017,05,07,06,04,2.10
2017,05,07,06,05,2.10
2017,05,07,06,06,2.10
2017,05,07,06,07,2.10
2017,05,07,06,08,2.10
2017,05,07,06,09,2.10
2017,05,07,06,10,2.10
2017,05,07,06,11,2.10
2017,05,07,06,12,2.10
2017,05,07,06,13,2.10
2017,05,07,06,14,2.10
2017,05,07,06,15,2.10
2017,05,07,06,16,2.10
2017,05,07,06,17,2.10
2017,05,07,06,18,2.10
2017,05,07,06,19,2.10
2017,05,07,06,20,2.10
2017,05,07,06,21,2.10
2017,05,07,06,22,2.10
2017,05,07,06,23,2.10
2017,05,07,06,24,2.10
2017,05,07,06,25,2.10
2017,05,07,06,26,2.10
2017,05,07,06,27,2.20
2017,05,07,06,28,2.20
2017,05,07,06,29,2.20
2017,05,07,06,30,2.20
2017,05,07,06,31,2.20
2017,05,07,06,32,2.30
2017,05,07,06,33,2.30
2017,05,07,06,34,2.30
2017,05,07,06,35,2.30
2017,05,07,06,36,2.30
2017,05,07,06,37,2.40
2017,05,07,06,38,2.40
2017,05,07,06,39,2.40
2017,05,07,06,40,2.40
2017,05,07,06,41,2.40
2017,05,07,06,42,2.40
2017,05,07,06,43,2.40
2017,05,07,06,44,2.40
2017,05,07,06,45,2.40
2017,05,07,06,46,2.40
2017,05,07,06,47,2.40
2017,05,07,06,48,2.50
2017,05,07,06,49,2.50
2017,05,07,06,50,2.50
2017,05,07,06,51,2.50
2017,05,07,06,52,2.60
2017,05,07,06,53,2.60
2017,05,07,06,54,2.60
2017,05,07,06,55,2.60
2017,05,07,06,56,2.70
2017,05,07,06,57,2.70
2017,05,07,06,58,2.70
2017,05,07,06,59,2.70
2017,05,07,07,00,2.70
2017,05,07,07,01,2.70
2017,05,07,07,02,2.70
2017,05,07,07,03,2.70
2017,05,07,07,04,2.70
2017,05,07,07,05,2.70
2017,05,07,07,06,2.80
2017,05,07,07,07,2.80
2017,05,07,07,08,2.80
2017,05,07,07,09,2.80
2017,05,07,07,10,2.80
2017,05,07,07,11,2.90
2017,05,07,07,12,2.90
2017,05,07,07,13,2.90
2017,05,07,07,14,3.00
2017,05,07,07,15,3.00
2017,05,07,07,16,3.10
2017,05,07,07,17,3.10
2017,05,07,07,18,3.10
2017,05,07,07,19,3.10
2017,05,07,07,20,3.20
2017,05,07,07,21,3.20
2017,05,07,07,22,3.20
2017,05,07,07,23,3.30
2017,05,07,07,24,3.30
2017,05,07,07,25,3.30
2017,05,07,07,26,3.40
2017,05,07,07,27,3.50
2017,05,07,07,28,3.60
2017,05,07,07,29,3.70
2017,05,07,07,30,3.70
2017,05,07,07,31,3.80
2017,05,07,07,32,3.80
2017,05,07,07,33,3.90
2017,05,07,07,34,3.90
2017,05,07,07,35,4.00
2017,05,07,07,36,4.00
2017,05,07,07,37,4.10
2017,05,07,07,38,4.10
2017,05,07,07,39,4.10
2017,05,07,07,40,4.10
2017,05,07,07,41,4.10
2017,05,07,07,42,4.10
2017,05,07,07,43,4.10
2017,05,07,07,44,4.10
2017,05,07,07,45,4.20
2017,05,07,07,46,4.30
2017,05,07,07,47,4.30
2017,05,07,07,48,4.30
2017,05,07,07,49,4.40
2017,05,07,07,50,4.40
2017,05,07,07,51,4.50
2017,05,07,07,52,4.50
2017,05,07,07,53,4.60
2017,05,07,07,54,4.70
2017,05,07,07,55,4.80
2017,05,07,07,56,4.80
2017,05,07,07,57,4.90
2017,05,07,07,58,5.00
2017,05,07,07,59,5.10
2017,05,07,08,00,5.20
2017,05,07,08,01,5.30
2017,05,07,08,02,5.40
2017,05,07,08,03,5.50
2017,05,07,08,04,5.50
2017,05,07,08,05,5.50
2017,05,07,08,06,5.60
2017,05,07,08,07,5.60
2017,05,07,08,08,5.60
2017,05,07,08,09,5.50
2017,05,07,08,10,5.40
2017,05,07,08,11,5.40
2017,05,07,08,12,5.30
2017,05,07,08,13,5.30
2017,05,07,08,14,5.30
2017,05,07,08,15,5.20
2017,05,07,08,16,5.20
2017,05,07,08,17,5.30
2017,05,07,08,18,5.30
2017,05,07,08,19,5.30
2017,05,07,08,20,5.30
2017,05,07,08,21,5.40
2017,05,07,08,22,5.50
2017,05,07,08,23,5.60
2017,05,07,08,24,5.70
2017,05,07,08,25,5.80
2017,05,07,08,26,5.90
2017,05,07,08,27,6.00
2017,05,07,08,28,6.10
2017,05,07,08,29,6.20
2017,05,07,08,30,6.20
2017,05,07,08,31,6.30
2017,05,07,08,32,6.30
2017,05,07,08,33,6.40
2017,05,07,08,34,6.40
2017,05,07,08,35,6.50
2017,05,07,08,36,6.50
2017,05,07,08,37,6.60
2017,05,07,08,38,6.70
2017,05,07,08,39,6.80
2017,05,07,08,40,6.90
2017,05,07,08,41,6.90
2017,05,07,08,42,6.90
2017,05,07,08,43,7.00
2017,05,07,08,44,7.00
2017,05,07,08,45,7.10
2017,05,07,08,46,7.20
2017,05,07,08,47,7.30
2017,05,07,08,48,7.40
2017,05,07,08,49,7.50
2017,05,07,08,50,7.60
2017,05,07,08,51,7.70
2017,05,07,08,52,7.70
2017,05,07,08,53,7.70
2017,05,07,08,54,7.70
2017,05,07,08,55,7.80
2017,05,07,08,56,7.80
2017,05,07,08,57,7.90
2017,05,07,08,58,7.90
2017,05,07,08,59,7.90
2017,05,07,09,00,7.90
2017,05,07,09,01,8.00
2017,05,07,09,02,8.00
2017,05,07,09,03,8.00
2017,05,07,09,04,8.10
2017,05,07,09,05,8.00
2017,05,07,09,06,8.00
2017,05,07,09,07,7.90
2017,05,07,09,08,8.00
2017,05,07,09,09,8.00
2017,05,07,09,10,8.10
2017,05,07,09,11,8.10
2017,05,07,09,12,8.20
2017,05,07,09,13,8.30
2017,05,07,09,14,8.30
2017,05,07,09,15,8.40
2017,05,07,09,16,8.50
2017,05,07,09,17,8.70
2017,05,07,09,18,8.80
2017,05,07,09,19,8.90
2017,05,07,09,20,8.90
2017,05,07,09,21,9.00
2017,05,07,09,22,9.00
2017,05,07,09,23,9.10
2017,05,07,09,24,9.20
2017,05,07,09,25,9.30
2017,05,07,09,26,9.30
2017,05,07,09,27,9.40
2017,05,07,09,28,9.50
2017,05,07,09,29,9.60
2017,05,07,09,30,9.60
2017,05,07,09,31,9.70
2017,05,07,09,32,9.70
2017,05,07,09,33,9.70
2017,05,07,09,34,9.70
2017,05,07,09,35,9.80
2017,05,07,09,36,9.90
2017,05,07,09,37,10.00
2017,05,07,09,38,10.10
2017,05,07,09,39,10.20
2017,05,07,09,40,10.30
2017,05,07,09,41,10.30
2017,05,07,09,42,10.30
2017,05,07,09,43,10.30
2017,05,07,09,44,10.30
2017,05,07,09,45,10.20
2017,05,07,09,46,10.10
2017,05,07,09,47,10.10
2017,05,07,09,48,10.00
2017,05,07,09,49,9.90
2017,05,07,09,50,9.90
2017,05,07,09,51,9.90
2017,05,07,09,52,10.00
2017,05,07,09,53,10.00
2017,05,07,09,54,10.10
2017,05,07,09,55,10.10
2017,05,07,09,56,10.20
2017,05,07,09,57,10.20
2017,05,07,09,58,10.30
2017,05,07,09,59,10.30
2017,05,07,10,00,10.30
2017,05,07,10,01,10.30
2017,05,07,10,02,10.30
2017,05,07,10,03,10.30
2017,05,07,10,04,10.30
2017,05,07,10,05,10.30
2017,05,07,10,06,10.30
2017,05,07,10,07,10.40
2017,05,07,10,08,10.40
2017,05,07,10,09,10.40
2017,05,07,10,10,10.40
2017,05,07,10,11,10.40
2017,05,07,10,12,10.40
2017,05,07,10,13,10.40
2017,05,07,10,14,10.30
2017,05,07,10,15,10.30
2017,05,07,10,16,10.30
2017,05,07,10,17,10.20
2017,05,07,10,18,10.20
2017,05,07,10,19,10.30
2017,05,07,10,20,10.30
2017,05,07,10,21,10.40
2017,05,07,10,22,10.40
2017,05,07,10,23,10.50
2017,05,07,10,24,10.60
2017,05,07,10,25,10.60
2017,05,07,10,26,10.70
2017,05,07,10,27,10.80
2017,05,07,10,28,10.90
2017,05,07,10,29,10.90
2017,05,07,10,30,11.00
2017,05,07,10,31,11.00
2017,05,07,10,32,11.10
2017,05,07,10,33,11.10
2017,05,07,10,34,11.00
2017,05,07,10,35,10.90
2017,05,07,10,36,10.80
2017,05,07,10,37,10.80
2017,05,07,10,38,10.90
2017,05,07,10,39,10.90
2017,05,07,10,40,11.00
2017,05,07,10,41,11.10
2017,05,07,10,42,11.20
2017,05,07,10,43,11.30
2017,05,07,10,44,11.30
2017,05,07,10,45,11.40
2017,05,07,10,46,11.40
2017,05,07,10,47,11.50
2017,05,07,10,48,11.60
2017,05,07,10,49,11.60
2017,05,07,10,50,11.60
2017,05,07,10,51,11.60
2017,05,07,10,52,11.60
2017,05,07,10,53,11.60
2017,05,07,10,54,11.50
2017,05,07,10,55,11.50
2017,05,07,10,56,11.50
2017,05,07,10,57,11.50
2017,05,07,10,58,11.60
2017,05,07,10,59,11.60
2017,05,07,11,00,11.60
2017,05,07,11,01,11.50
2017,05,07,11,02,11.50
2017,05,07,11,03,11.40
2017,05,07,11,04,11.40
2017,05,07,11,05,11.40
2017,05,07,11,06,11.50
2017,05,07,11,07,11.50
2017,05,07,11,08,11.50
2017,05,07,11,09,11.60
2017,05,07,11,10,11.60
2017,05,07,11,11,11.60
2017,05,07,11,12,11.60
2017,05,07,11,13,11.60
2017,05,07,11,14,11.60
2017,05,07,11,15,11.70
2017,05,07,11,16,11.70
2017,05,07,11,17,11.80
2017,05,07,11,18,12.00
2017,05,07,11,19,12.10
2017,05,07,11,20,12.20
2017,05,07,11,21,12.20
2017,05,07,11,22,12.20
2017,05,07,11,23,12.30
2017,05,07,11,24,12.30
2017,05,07,11,25,12.30
2017,05,07,11,26,12.40
2017,05,07,11,27,12.40
2017,05,07,11,28,12.30
2017,05,07,11,29,12.30
2017,05,07,11,30,12.30
2017,05,07,11,31,12.20
2017,05,07,11,32,12.20
2017,05,07,11,33,12.20
2017,05,07,11,34,12.20
2017,05,07,11,35,12.20
2017,05,07,11,36,12.20
2017,05,07,11,37,12.10
2017,05,07,11,38,12.20
2017,05,07,11,39,12.20
2017,05,07,11,40,12.20
2017,05,07,11,41,12.10
2017,05,07,11,42,12.10
2017,05,07,11,43,12.10
2017,05,07,11,44,12.10
2017,05,07,11,45,12.10
2017,05,07,11,46,12.10
2017,05,07,11,47,12.10
2017,05,07,11,48,12.20
2017,05,07,11,49,12.30
2017,05,07,11,50,12.40
2017,05,07,11,51,12.40
2017,05,07,11,52,12.50
2017,05,07,11,53,12.50
2017,05,07,11,54,12.50
2017,05,07,11,55,12.60
2017,05,07,11,56,12.50
2017,05,07,11,57,12.50
2017,05,07,11,58,12.50
2017,05,07,11,59,12.50
2017,05,07,12,00,12.50
2017,05,07,12,01,12.50
2017,05,07,12,02,12.50
2017,05,07,12,03,12.60
2017,05,07,12,04,12.70
2017,05,07,12,05,12.80
2017,05,07,12,06,12.90
2017,05,07,12,07,12.90
2017,05,07,12,08,12.90
2017,05,07,12,09,13.00
2017,05,07,12,10,13.00
2017,05,07,12,11,12.90
2017,05,07,12,12,12.90
2017,05,07,12,13,12.90
2017,05,07,12,14,12.90
2017,05,07,12,15,12.90
2017,05,07,12,16,12.80
2017,05,07,12,17,12.80
2017,05,07,12,18,12.80
2017,05,07,12,19,12.80
2017,05,07,12,20,12.80
2017,05,07,12,21,12.80
2017,05,07,12,22,12.80
2017,05,07,12,23,12.80
2017,05,07,12,24,12.80
2017,05,07,12,25,12.80
2017,05,07,12,26,12.80
2017,05,07,12,27,12.80
2017,05,07,12,28,12.80
2017,05,07,12,29,12.80
2017,05,07,12,30,12.80
2017,05,07,12,31,12.80
2017,05,07,12,32,12.80
2017,05,07,12,33,12.80
2017,05,07,12,34,12.80
2017,05,07,12,35,12.90
2017,05,07,12,36,13.00
2017,05,07,12,37,13.00
2017,05,07,12,38,13.10
2017,05,07,12,39,13.10
2017,05,07,12,40,13.10
2017,05,07,12,41,13.10
2017,05,07,12,42,13.10
2017,05,07,12,43,13.10
2017,05,07,12,44,13.10
2017,05,07,12,45,13.00
2017,05,07,12,46,13.00
2017,05,07,12,47,13.00
2017,05,07,12,48,13.00
2017,05,07,12,49,12.90
2017,05,07,12,50,12.90
2017,05,07,12,51,12.90
2017,05,07,12,52,12.90
2017,05,07,12,53,12.80
2017,05,07,12,54,12.80
2017,05,07,12,55,12.80
2017,05,07,12,56,12.70
2017,05,07,12,57,12.70
2017,05,07,12,58,12.70
2017,05,07,12,59,12.70
2017,05,07,13,00,12.70
2017,05,07,13,01,12.70
2017,05,07,13,02,12.70
2017,05,07,13,03,12.80
2017,05,07,13,04,12.90
2017,05,07,13,05,12.90
2017,05,07,13,06,13.00
2017,05,07,13,07,13.00
2017,05,07,13,08,13.00
2017,05,07,13,09,13.00
2017,05,07,13,10,13.00
2017,05,07,13,11,13.00
2017,05,07,13,12,13.10
2017,05,07,13,13,13.20
2017,05,07,13,14,13.20
2017,05,07,13,15,13.30
2017,05,07,13,16,13.30
2017,05,07,13,17,13.30
2017,05,07,13,18,13.30
2017,05,07,13,19,13.30
2017,05,07,13,20,13.30
2017,05,07,13,21,13.30
2017,05,07,13,22,13.30
2017,05,07,13,23,13.30
2017,05,07,13,24,13.40
2017,05,07,13,25,13.50
2017,05,07,13,26,13.60
2017,05,07,13,27,13.60
2017,05,07,13,28,13.70
2017,05,07,13,29,13.80
2017,05,07,13,30,13.80
2017,05,07,13,31,13.80
2017,05,07,13,32,13.80
2017,05,07,13,33,13.70
2017,05,07,13,34,13.70
2017,05,07,13,35,13.70
2017,05,07,13,36,13.60
2017,05,07,13,37,13.50
2017,05,07,13,38,13.40
2017,05,07,13,39,13.30
2017,05,07,13,40,13.40
2017,05,07,13,41,13.40
2017,05,07,13,42,13.30
2017,05,07,13,43,13.30
2017,05,07,13,44,13.30
2017,05,07,13,45,13.30
2017,05,07,13,46,13.30
2017,05,07,13,47,13.40
2017,05,07,13,48,13.50
2017,05,07,13,49,13.50
2017,05,07,13,50,13.50
2017,05,07,13,51,13.50
2017,05,07,13,52,13.50
2017,05,07,13,53,13.40
2017,05,07,13,54,13.40
2017,05,07,13,55,13.40
2017,05,07,13,56,13.30
2017,05,07,13,57,13.30
2017,05,07,13,58,13.30
2017,05,07,13,59,13.30
2017,05,07,14,00,13.30
2017,05,07,14,01,13.40
2017,05,07,14,02,13.30
2017,05,07,14,03,13.30
2017,05,07,14,04,13.20
2017,05,07,14,05,13.20
2017,05,07,14,06,13.20
2017,05,07,14,07,13.30
2017,05,07,14,08,13.40
2017,05,07,14,09,13.50
2017,05,07,14,10,13.60
2017,05,07,14,11,13.70
2017,05,07,14,12,13.80
2017,05,07,14,13,13.90
2017,05,07,14,14,13.90
2017,05,07,14,15,14.00
2017,05,07,14,16,13.90
2017,05,07,14,17,13.80
2017,05,07,14,18,13.70
2017,05,07,14,19,13.70
2017,05,07,14,20,13.60
2017,05,07,14,21,13.60
2017,05,07,14,22,13.60
2017,05,07,14,23,13.60
2017,05,07,14,24,13.70
2017,05,07,14,25,13.90
2017,05,07,14,26,14.00
2017,05,07,14,27,14.10
2017,05,07,14,28,14.00
2017,05,07,14,29,13.90
2017,05,07,14,30,13.80
2017,05,07,14,31,13.70
2017,05,07,14,32,13.60
2017,05,07,14,33,13.50
2017,05,07,14,34,13.40
2017,05,07,14,35,13.40
2017,05,07,14,36,13.40
2017,05,07,14,37,13.30
2017,05,07,14,38,13.30
2017,05,07,14,39,13.30
2017,05,07,14,40,13.40
2017,05,07,14,41,13.40
2017,05,07,14,42,13.40
2017,05,07,14,43,13.40
2017,05,07,14,44,13.40
2017,05,07,14,45,13.30
2017,05,07,14,46,13.20
2017,05,07,14,47,13.20
2017,05,07,14,48,13.20
2017,05,07,14,49,13.30
2017,05,07,14,50,13.40
2017,05,07,14,51,13.40
2017,05,07,14,52,13.50
2017,05,07,14,53,13.60
2017,05,07,14,54,13.60
2017,05,07,14,55,13.70
2017,05,07,14,56,13.80
2017,05,07,14,57,13.90
2017,05,07,14,58,14.00
2017,05,07,14,59,14.00
2017,05,07,15,00,13.90
2017,05,07,15,01,13.90
2017,05,07,15,02,13.90
2017,05,07,15,03,13.80
2017,05,07,15,04,13.80
2017,05,07,15,05,13.80
2017,05,07,15,06,13.80
2017,05,07,15,07,13.80
2017,05,07,15,08,13.70
2017,05,07,15,09,13.60
2017,05,07,15,10,13.50
2017,05,07,15,11,13.40
2017,05,07,15,12,13.30
2017,05,07,15,13,13.30
2017,05,07,15,14,13.20
2017,05,07,15,15,13.10
2017,05,07,15,16,13.10
2017,05,07,15,17,13.20
2017,05,07,15,18,13.20
2017,05,07,15,19,13.10
2017,05,07,15,20,13.10
2017,05,07,15,21,13.00
2017,05,07,15,22,12.90
2017,05,07,15,23,12.90
2017,05,07,15,24,12.80
2017,05,07,15,25,12.80
2017,05,07,15,26,12.80
2017,05,07,15,27,12.90
2017,05,07,15,28,13.00
2017,05,07,15,29,13.10
2017,05,07,15,30,13.10
2017,05,07,15,31,13.10
2017,05,07,15,32,13.10
2017,05,07,15,33,13.10
2017,05,07,15,34,13.10
2017,05,07,15,35,13.20
2017,05,07,15,36,13.20
2017,05,07,15,37,13.30
2017,05,07,15,38,13.20
2017,05,07,15,39,13.20
2017,05,07,15,40,13.20
2017,05,07,15,41,13.30
2017,05,07,15,42,13.30
2017,05,07,15,43,13.30
2017,05,07,15,44,13.30
2017,05,07,15,45,13.20
2017,05,07,15,46,13.10
2017,05,07,15,47,13.10
2017,05,07,15,48,13.00
2017,05,07,15,49,13.00
2017,05,07,15,50,12.90
2017,05,07,15,51,12.90
2017,05,07,15,52,12.90
2017,05,07,15,53,12.90
2017,05,07,15,54,12.90
2017,05,07,15,55,12.90
2017,05,07,15,56,12.90
2017,05,07,15,57,12.80
2017,05,07,15,58,12.80
2017,05,07,15,59,12.80
2017,05,07,16,00,12.80
2017,05,07,16,01,12.80
2017,05,07,16,02,12.90
2017,05,07,16,03,13.00
2017,05,07,16,04,13.00
2017,05,07,16,05,13.10
2017,05,07,16,06,13.10
2017,05,07,16,07,13.10
2017,05,07,16,08,13.10
2017,05,07,16,09,13.00
2017,05,07,16,10,13.00
2017,05,07,16,11,12.90
2017,05,07,16,12,13.00
2017,05,07,16,13,13.00
2017,05,07,16,14,13.00
2017,05,07,16,15,13.10
2017,05,07,16,16,13.10
2017,05,07,16,17,13.10
2017,05,07,16,18,13.10
2017,05,07,16,19,13.10
2017,05,07,16,20,13.10
2017,05,07,16,21,13.10
2017,05,07,16,22,13.10
2017,05,07,16,23,13.00
2017,05,07,16,24,12.90
2017,05,07,16,25,12.90
2017,05,07,16,26,13.00
2017,05,07,16,27,13.00
2017,05,07,16,28,13.00
2017,05,07,16,29,12.90
2017,05,07,16,30,12.80
2017,05,07,16,31,12.70
2017,05,07,16,32,12.70
2017,05,07,16,33,12.70
2017,05,07,16,34,12.70
2017,05,07,16,35,12.60
2017,05,07,16,36,12.60
2017,05,07,16,37,12.60
2017,05,07,16,38,12.70
2017,05,07,16,39,12.70
2017,05,07,16,40,12.60
2017,05,07,16,41,12.60
2017,05,07,16,42,12.50
2017,05,07,16,43,12.40
2017,05,07,16,44,12.40
2017,05,07,16,45,12.30
2017,05,07,16,46,12.30
2017,05,07,16,47,12.30
2017,05,07,16,48,12.30
2017,05,07,16,49,12.40
2017,05,07,16,50,12.50
2017,05,07,16,51,12.50
2017,05,07,16,52,12.50
2017,05,07,16,53,12.50
2017,05,07,16,54,12.50
2017,05,07,16,55,12.40
2017,05,07,16,56,12.40
2017,05,07,16,57,12.50
2017,05,07,16,58,12.50
2017,05,07,16,59,12.60
2017,05,07,17,00,12.70
2017,05,07,17,01,12.80
2017,05,07,17,02,13.00
2017,05,07,17,03,13.00
2017,05,07,17,04,13.10
2017,05,07,17,05,13.10
2017,05,07,17,06,13.10
2017,05,07,17,07,13.10
2017,05,07,17,08,13.20
2017,05,07,17,09,13.20
2017,05,07,17,10,13.30
2017,05,07,17,11,13.30
2017,05,07,17,12,13.30
2017,05,07,17,13,13.40
2017,05,07,17,14,13.40
2017,05,07,17,15,13.40
2017,05,07,17,16,13.40
2017,05,07,17,17,13.30
2017,05,07,17,18,13.30
2017,05,07,17,19,13.10
2017,05,07,17,20,13.10
2017,05,07,17,21,12.90
2017,05,07,17,22,12.90
2017,05,07,17,23,12.90
2017,05,07,17,24,12.90
2017,05,07,17,25,12.90
2017,05,07,17,26,12.90
2017,05,07,17,27,13.00
2017,05,07,17,28,13.00
2017,05,07,17,29,13.00
2017,05,07,17,30,13.10
2017,05,07,17,31,13.10
2017,05,07,17,32,13.00
2017,05,07,17,33,12.90
2017,05,07,17,34,12.90
2017,05,07,17,35,12.90
2017,05,07,17,36,12.90
2017,05,07,17,37,12.70
2017,05,07,17,38,12.70
2017,05,07,17,39,12.70
2017,05,07,17,40,12.70
2017,05,07,17,41,12.70
2017,05,07,17,42,12.80
2017,05,07,17,43,12.70
2017,05,07,17,44,12.80
2017,05,07,17,45,12.80
2017,05,07,17,46,12.80
2017,05,07,17,47,12.90